Flag for Bulgaria Weather past 2 weeks in Plovdiv, Bulgaria

Now
68 °F

Thunderstorms. Broken clouds.


Feels Like: 68 °F
Forecast: 52 / 71 °F
Wind: 13 mph from East

Location: Plovdiv Airport


UV Index: 0 (Low)

Visibility: N/A


Pressure: 29.77 "Hg

Humidity: 83%

Dew point: 63 °F

Location of PlovdivLocation

Historic Weather in Plovdiv

°F

Plovdiv temperature yesterday

Maximum temperature yesterday: 72 °F (at 5:00 PM)
Minimum temperature yesterday: 52 °F (at 6:00 AM)
Average temperature yesterday: 62 °F

Past Weeks' High & Low Weather Summary

 TemperatureHumidityPressure
High73 °F (Apr 9, 4:00 PM)100% (Apr 10, 11:00 PM)30.07 "Hg (Apr 10, 11:00 PM)
Low37 °F (Apr 14, 6:00 AM)33% (Apr 9, 6:00 PM)29.56 "Hg (Apr 18, 2:00 PM)
Average54 °F83%29.88 "Hg
* Reported Apr 9 4:00 PM — Apr 24 4:00 PM, Plovdiv, Weather by CustomWeather, © 2014

Note: Actual official high and low records may vary slightly from our data, if they occured in-between our weather recording intervals... More about our weather records

Advertising

Historic Weather Conditions — Data for Previous 24 hours

 ConditionsComfort  
Time TempWeatherWind HumidityBarometerVisibility
4:00 PM
Apr 24
68 °FThunderstorms. Broken clouds.13 mph83%29.77 "HgN/A
3:45 PM70 °FThunderstorms. Broken clouds.13 mph78%29.74 "HgN/A
3:00 PM70 °FBroken clouds.13 mph73%29.80 "HgN/A
2:00 PM70 °FBroken clouds.10 mph73%29.83 "HgN/A
1:00 PM68 °FPartly sunny.10 mph83%29.83 "HgN/A
12:00 PM66 °FMore clouds than sun.8 mph88%29.86 "HgN/A
11:00 AM63 °FPartly sunny.10 mph94%29.89 "HgN/A
10:00 AM63 °FScattered clouds.13 mph88%29.89 "HgN/A
9:00 AM61 °FScattered clouds.10 mph94%29.89 "HgN/A
8:00 AM57 °FBroken clouds.6 mph100%29.89 "Hg4 mi
7:00 AM57 °FPartly cloudy.1 mph100%29.89 "Hg4 mi
6:00 AM59 °FPassing clouds.10 mph100%29.89 "Hg4 mi
5:00 AM61 °FPassing clouds.10 mph94%29.89 "HgN/A
4:00 AM63 °FPassing clouds.6 mph83%29.89 "HgN/A
3:00 AM61 °FPassing clouds.6 mph100%29.92 "HgN/A
2:00 AM61 °FPassing clouds.6 mph100%29.92 "HgN/A
1:00 AM61 °FClear.No wind100%29.95 "Hg10 mi
12:00 AM63 °FPassing clouds.1 mph94%29.95 "HgN/A
11:00 PM
Apr 23
63 °FPassing clouds.3 mph94%29.98 "HgN/A
10:00 PM64 °FPassing clouds.3 mph88%29.98 "HgN/A
9:00 PM64 °FScattered clouds.3 mph88%29.98 "HgN/A
8:00 PM66 °FSunny.1 mph88%29.98 "Hg10 mi
7:00 PM68 °FScattered clouds.3 mph83%29.98 "HgN/A
6:00 PM70 °FScattered clouds.6 mph78%29.98 "HgN/A
5:00 PM72 °FScattered clouds.10 mph73%29.98 "HgN/A
Weather by CustomWeather, © 2014

See weather overview